[[{"header":{"parameterUnit":"m.s-1","parameterCategory":1,"la1":30.2991,"la2":30.254,"lo1":-89.0895,"lo2":-89.0444,"dy":0.0017,"dx":0.0017,"nx":28,"ny":28,"refTime":"2023-10-31T03:00:00:Z","depth":0,"parameterNumber":2,"parameterNumberName":"U-component_of_WINDS"},"data":[0,0,0,0,0,0,0,0,0,0,0,0,0,0,0,0,0,0,0,0,0,0,0,0,0,0,0,0,0,0,0,0,0,0,0,0,0,0,0,0,0,0,0,0,0,0,0,0,0,0,0,0,0,0,0,0,0,0,-2.1717,-2.1718,0,-2.1783,-2.1784,-2.1784,-2.1762,-2.1761,-2.1759,-2.1758,-2.1825,-2.1828,-2.1831,0,0,0,0,0,0,0,0,0,0,0,0,0,-2.1571,-2.1574,-2.1717,-2.1718,-2.1719,-2.1783,-2.1784,-2.1785,-2.1762,-2.1761,-2.1759,-2.1757,-2.1824,-2.1828,-2.1832,0,0,0,0,0,0,0,0,0,0,0,0,0,-2.1635,-2.1575,-2.1717,-2.1715,-2.1716,-2.1783,-2.1784,-2.1785,-2.1763,-2.1761,-2.1758,-2.1756,-2.1823,-2.1828,-2.1832,-2.1904,0,0,-2.1847,-2.1849,0,0,0,0,0,0,0,0,-2.1632,-2.1641,-2.1715,-2.1715,-2.1716,-2.1762,-2.1757,-2.1825,-2.1763,-2.1745,-2.1758,-2.1755,-2.1806,-2.1812,-2.1829,-2.1908,-2.191,-2.1847,-2.185,-2.1852,-2.1853,0,0,0,0,0,0,0,-2.1627,-2.1638,-2.1743,-2.1716,-2.1717,-2.1711,-2.1718,-2.177,-2.1787,-2.1746,-2.1745,-2.1753,-2.1806,-2.1825,-2.183,-2.1911,-2.1847,-2.1851,-2.1854,-2.1856,-2.2052,-2.2055,0,0,0,0,0,0,-2.1622,-2.1634,-2.1741,-2.1745,-2.1668,-2.1715,-2.1723,-2.175,-2.1786,-2.179,-2.1755,-2.1752,-2.1818,-2.1825,-2.1833,-2.192,-2.1852,-2.1856,-2.1859,-2.205,-2.2053,-2.2056,0,0,0,0,0,0,-2.1619,-2.1632,-2.1738,-2.1689,-2.1702,-2.172,-2.175,-2.1752,-2.1771,-2.1792,-2.1795,-2.1771,-2.1816,-2.1826,-2.1887,-2.1922,-2.1858,-2.1863,-2.2047,-2.2051,-2.2054,-2.2095,0,0,0,0,0,0,-2.1615,-2.1631,-2.1659,-2.169,-2.1705,-2.1792,-2.1752,-2.1755,-2.1779,-2.1775,-2.1808,-2.1812,-2.1815,-2.188,-2.1891,-2.1928,-2.1866,-2.2044,-2.2049,-2.2053,-2.2091,-2.21,-2.2108,0,0,0,0,0,-2.161,-2.1668,-2.1661,-2.1674,-2.174,-2.1794,-2.1802,-2.1805,-2.1782,-2.181,-2.1824,-2.1811,-2.1916,-2.1886,-2.1899,-2.1937,-2.2042,-2.2048,-2.2053,-2.2087,-2.2098,-2.2108,0,0,0,0,0,0,-2.1641,-2.1672,-2.1664,-2.1734,-2.1761,-2.179,-2.1826,-2.1817,-2.1852,-2.1847,-2.1849,-2.1857,-2.1919,-2.1934,-2.19,-2.2009,-2.1975,-2.1984,-2.1997,-2.2008,-2.2016,-2.2012,-2.187,0,0,0,0,0,-2.1656,-2.1697,-2.1722,-2.1781,-2.1795,-2.1808,-2.1831,-2.1831,-2.186,-2.1871,-2.1889,-2.1917,-2.1957,-2.1983,-2.202,-2.2092,-2.2099,-2.2125,-2.2133,-2.214,-2.2147,-2.2187,-2.2198,-2.2073,-2.2073,-2.2073,0,0,-2.1687,-2.1709,-2.1735,-2.1787,-2.1809,-2.1851,-2.1818,-2.1864,-2.1895,-2.1878,-2.1937,-2.1951,-2.1982,-2.2049,-2.2079,-2.2063,-2.2183,-2.2147,-2.2152,-2.2156,-2.2193,-2.2205,-2.2216,-2.2077,-2.2076,-2.2076,0,0,-2.1766,-2.1787,-2.1838,-2.186,-2.1893,-2.1901,-2.1913,-2.1943,-2.1952,-2.2011,-2.1999,-2.2035,-2.2103,-2.2126,-2.2147,-2.2233,-2.2222,-2.2245,-2.2289,-2.2328,-2.2338,-2.2346,-2.2378,-2.2389,-2.2252,-2.2252,-2.2252,0,-2.1801,-2.1865,-2.1866,-2.1914,-2.1937,-2.1923,-2.1975,-2.1996,-2.2039,-2.2055,-2.2036,-2.2121,-2.2141,-2.2213,-2.2234,-2.2251,-2.2265,-2.2242,-2.2336,-2.2345,-2.2353,-2.2383,-2.2395,-2.2255,-2.2255,-2.2254,-2.2254,0,-2.1907,-2.1951,-2.1988,-2.2031,-2.2058,-2.2107,-2.2116,-2.2143,-2.214,-2.215,-2.221,-2.2234,-2.2276,-2.2292,-2.229,-2.2364,-2.2353,-2.2335,-2.2302,-2.2368,-2.2396,-2.2407,-2.2259,-2.2258,-2.2257,-2.2256,0,0,-2.2009,-2.205,-2.2064,-2.2083,-2.2117,-2.2151,-2.22,-2.2241,-2.2265,-2.2294,-2.2335,-2.2392,-2.2376,-2.2399,-2.2399,-2.2432,-2.25,-2.241,-2.2411,-2.2427,-2.2584,-2.2598,-2.2611,-2.2492,-2.2494,-2.2496,-2.2581,0,-2.2091,-2.2177,-2.2179,-2.2258,-2.2299,-2.2285,-2.2327,-2.2353,-2.2363,-2.2399,-2.241,-2.2451,-2.2425,-2.2439,-2.2472,-2.2485,-2.2532,-2.2478,-2.2531,-2.2533,-2.2525,-2.2626,-2.2641,-2.2721,-2.2592,-2.2594,-2.2595,0,-2.22,-2.2233,-2.2316,-2.2344,-2.2361,-2.2399,-2.2437,-2.2471,-2.2499,-2.2504,-2.253,-2.2525,-2.2574,-2.2538,-2.2605,-2.2569,-2.259,-2.26,-2.2603,-2.2609,-2.2569,-2.2636,-2.2746,-2.2759,-2.2613,-2.2611,-2.261,0,-2.2267,-2.2333,-2.2391,-2.2407,-2.2441,-2.2468,-2.2484,-2.251,-2.2534,-2.2566,-2.2582,-2.262,-2.2641,-2.267,-2.2675,-2.2648,-2.2743,-2.2707,-2.2749,-2.2749,-2.2771,-2.277,-2.2887,-2.2782,-2.2782,-2.2782,-2.2782,0,-2.236,-2.2412,-2.2422,-2.2458,-2.2514,-2.2516,-2.2572,-2.2585,-2.2608,-2.2646,-2.2636,-2.2671,-2.2675,-2.2711,-2.2715,-2.2771,-2.278,-2.2786,-2.2786,-2.2788,-2.2787,-2.2803,-2.2798,-2.2785,-2.2784,-2.2784,-2.2783,0,-2.2446,-2.2455,-2.2517,-2.2544,-2.2552,-2.2593,-2.2616,-2.265,-2.2658,-2.2706,-2.2718,-2.2731,-2.2774,-2.2781,-2.2831,-2.2833,-2.29,-2.2894,-2.2891,-2.2891,-2.2932,-2.2929,-2.3065,-2.3083,-2.2965,-2.2966,-2.2967,0,-2.2506,-2.2545,-2.2576,-2.2601,-2.2618,-2.2658,-2.2682,-2.2684,-2.2711,-2.2745,-2.2775,-2.2817,-2.285,-2.2919,-2.2933,-2.2971,-2.2967,-2.3012,-2.2972,-2.2972,-2.2968,-2.2967,-2.2971,-2.302,-2.3021,-2.3022,-2.3023,0,-2.2611,-2.2613,-2.265,-2.2688,-2.2717,-2.2747,-2.2775,-2.2796,-2.2801,-2.2831,-2.2875,-2.2901,-2.2951,-2.2993,-2.303,-2.3045,-2.3036,-2.3035,-2.3047,-2.3049,-2.3046,-2.3049,-2.2913,-2.3032,-2.3031,-2.3031,-2.303,-2.303,-2.2687,-2.2721,-2.2748,-2.2789,-2.281,-2.2836,-2.287,-2.2882,-2.2919,-2.2961,-2.2959,-2.3007,-2.3033,-2.3082,-2.31,-2.3137,-2.3123,-2.314,-2.3144,-2.3149,-2.3153,-2.3039,-2.3144,-2.3144,-2.3143,-2.3143,-2.3143,0,-2.2793,-2.2809,-2.2846,-2.2886,-2.2918,-2.2905,-2.2935,-2.2963,-2.3005,-2.303,-2.3063,-2.3113,-2.3153,-2.3169,-2.3208,-2.3235,-2.3231,-2.3245,-2.3244,-2.3247,-2.3164,-2.315,-2.3247,-2.3247,-2.3247,-2.3247,-2.3247,-2.3247,-2.2852,-2.2909,-2.2914,-2.2982,-2.2998,-2.3045,-2.3063,-2.3087,-2.3107,-2.3164,-2.3197,-2.3207,-2.3229,-2.3269,-2.3305,-2.3309,-2.3324,-2.334,-2.3342,-2.3264,-2.3253,-2.3243,-2.3231,-2.3343,-2.3343,-2.3423,-2.3424,-2.3424]},{"header":{"parameterUnit":"m.s-1","parameterCategory":1,"la1":30.2991,"la2":30.254,"lo1":-89.0895,"lo2":-89.0444,"dy":0.0017,"dx":0.0017,"nx":28,"ny":28,"refTime":"2023-10-31T03:00:00:Z","depth":0,"parameterNumber":3,"parameterNumberName":"V-component_of_WINDS"},"data":[0,0,0,0,0,0,0,0,0,0,0,0,0,0,0,0,0,0,0,0,0,0,0,0,0,0,0,0,0,0,0,0,0,0,0,0,0,0,0,0,0,0,0,0,0,0,0,0,0,0,0,0,0,0,0,0,0,0,-8.5144,-8.5145,0,-8.5249,-8.5251,-8.5252,-8.5174,-8.5171,-8.5168,-8.5164,-8.5266,-8.5271,-8.5277,0,0,0,0,0,0,0,0,0,0,0,0,0,-8.4869,-8.4874,-8.5144,-8.5145,-8.5146,-8.5249,-8.5251,-8.5252,-8.5175,-8.5171,-8.5167,-8.5163,-8.5264,-8.5271,-8.5278,0,0,0,0,0,0,0,0,0,0,0,0,0,-8.4983,-8.4876,-8.5144,-8.5121,-8.512,-8.5249,-8.5251,-8.5252,-8.5176,-8.5171,-8.5166,-8.5161,-8.5261,-8.527,-8.5279,-8.5434,0,0,-8.5305,-8.5309,0,0,0,0,0,0,0,0,-8.4976,-8.4993,-8.5123,-8.5122,-8.5121,-8.5194,-8.5191,-8.5313,-8.5177,-8.5154,-8.5164,-8.5158,-8.5245,-8.5255,-8.5286,-8.5439,-8.5443,-8.5306,-8.5311,-8.5315,-8.5318,0,0,0,0,0,0,0,-8.4968,-8.4988,-8.5185,-8.5125,-8.5124,-8.5103,-8.5113,-8.5214,-8.5227,-8.5156,-8.5151,-8.5164,-8.5244,-8.5278,-8.5288,-8.5445,-8.5306,-8.5314,-8.5319,-8.5323,-8.5731,-8.5736,0,0,0,0,0,0,-8.4964,-8.4982,-8.5182,-8.5188,-8.5035,-8.5112,-8.5124,-8.5175,-8.5225,-8.5228,-8.5169,-8.516,-8.5265,-8.5277,-8.5291,-8.5477,-8.5315,-8.5323,-8.5328,-8.5726,-8.5732,-8.5738,0,0,0,0,0,0,-8.4958,-8.4982,-8.5178,-8.5084,-8.5107,-8.5122,-8.5181,-8.518,-8.5214,-8.5235,-8.5236,-8.5201,-8.5262,-8.5278,-8.54,-8.5479,-8.5327,-8.5335,-8.5719,-8.5728,-8.5735,-8.585,0,0,0,0,0,0,-8.495,-8.4981,-8.5042,-8.5086,-8.5112,-8.5287,-8.5186,-8.5186,-8.523,-8.522,-8.5266,-8.5269,-8.5259,-8.5387,-8.5409,-8.5489,-8.5342,-8.5712,-8.5723,-8.5733,-8.5839,-8.5861,-8.588,0,0,0,0,0,-8.4941,-8.5068,-8.5045,-8.507,-8.5189,-8.5292,-8.5307,-8.5295,-8.5237,-8.5297,-8.5311,-8.5267,-8.5467,-8.54,-8.5424,-8.5508,-8.5707,-8.572,-8.5732,-8.583,-8.5857,-8.588,0,0,0,0,0,0,-8.503,-8.5073,-8.5048,-8.5194,-8.524,-8.5279,-8.5354,-8.5324,-8.5386,-8.5374,-8.5354,-8.5365,-8.5493,-8.5512,-8.5436,-8.5661,-8.5577,-8.5595,-8.5644,-8.567,-8.569,-8.5683,-8.5349,0,0,0,0,0,-8.5067,-8.5149,-8.5182,-8.5307,-8.5332,-8.534,-8.5384,-8.5371,-8.5417,-8.5435,-8.5458,-8.5502,-8.5575,-8.5623,-8.5691,-8.5842,-8.585,-8.5911,-8.5931,-8.5948,-8.5964,-8.6044,-8.6072,-8.578,-8.578,-8.5779,0,0,-8.5143,-8.5177,-8.523,-8.5326,-8.536,-8.5444,-8.5356,-8.5448,-8.5509,-8.5448,-8.5565,-8.5583,-8.5631,-8.5768,-8.5829,-8.5788,-8.6046,-8.5964,-8.5977,-8.5984,-8.606,-8.6088,-8.6113,-8.5788,-8.5787,-8.5785,0,0,-8.5326,-8.536,-8.5469,-8.5506,-8.556,-8.5564,-8.559,-8.5634,-8.5645,-8.5762,-8.5718,-8.5789,-8.5915,-8.5952,-8.5987,-8.6184,-8.6146,-8.6207,-8.6314,-8.6393,-8.6416,-8.6436,-8.6507,-8.6532,-8.6222,-8.6222,-8.6222,0,-8.5413,-8.554,-8.5528,-8.5624,-8.5667,-8.5618,-8.5727,-8.5762,-8.5835,-8.5865,-8.5818,-8.5976,-8.6005,-8.6149,-8.6198,-8.6228,-8.6256,-8.6201,-8.6414,-8.6434,-8.6453,-8.652,-8.6546,-8.6229,-8.6229,-8.6228,-8.6227,0,-8.5645,-8.5734,-8.5814,-8.5889,-8.5941,-8.6043,-8.6044,-8.6098,-8.6081,-8.609,-8.6209,-8.6243,-8.6317,-8.635,-8.6333,-8.6493,-8.6465,-8.6417,-8.6332,-8.6488,-8.6551,-8.6576,-8.6239,-8.6237,-8.6235,-8.6233,0,0,-8.5886,-8.5954,-8.5984,-8.6018,-8.6074,-8.6141,-8.624,-8.6315,-8.6362,-8.6413,-8.6495,-8.6603,-8.6559,-8.6599,-8.6585,-8.6655,-8.6809,-8.6597,-8.6598,-8.6636,-8.6987,-8.7024,-8.7054,-8.6785,-8.6789,-8.6793,-8.6983,0,-8.6072,-8.6248,-8.624,-8.6404,-8.6485,-8.644,-8.6526,-8.6569,-8.658,-8.6649,-8.6659,-8.6737,-8.6672,-8.6696,-8.6763,-8.6777,-8.688,-8.6763,-8.6859,-8.6863,-8.6849,-8.7087,-8.7125,-8.7303,-8.7008,-8.7012,-8.7015,0,-8.6312,-8.6375,-8.6548,-8.6594,-8.6627,-8.6705,-8.6774,-8.6841,-8.6888,-8.6891,-8.6936,-8.6912,-8.701,-8.6923,-8.7058,-8.6979,-8.7017,-8.703,-8.7036,-8.7045,-8.6948,-8.7102,-8.736,-8.7387,-8.7053,-8.705,-8.7047,0,-8.6471,-8.6599,-8.6719,-8.6749,-8.6805,-8.6861,-8.6886,-8.6928,-8.6974,-8.7033,-8.7063,-8.7132,-8.7169,-8.7222,-8.7216,-8.7154,-8.7353,-8.7266,-8.7357,-8.7357,-8.7401,-8.7398,-8.7669,-8.7426,-8.7426,-8.7425,-8.7424,0,-8.668,-8.6787,-8.6792,-8.6866,-8.6984,-8.6973,-8.709,-8.7109,-8.7147,-8.7223,-8.7186,-8.7257,-8.7245,-8.7315,-8.7311,-8.7423,-8.744,-8.7444,-8.7441,-8.7448,-8.7447,-8.7473,-8.746,-8.7432,-8.743,-8.7429,-8.7428,0,-8.6878,-8.6885,-8.7013,-8.7057,-8.707,-8.7155,-8.7191,-8.726,-8.7268,-8.7364,-8.7386,-8.7398,-8.7479,-8.7478,-8.757,-8.7566,-8.7704,-8.7687,-8.769,-8.7686,-8.7778,-8.7769,-8.8075,-8.8114,-8.7845,-8.7848,-8.785,0,-8.7011,-8.7093,-8.7146,-8.7195,-8.7225,-8.7304,-8.7352,-8.7343,-8.7394,-8.7454,-8.7516,-8.7594,-8.7656,-8.7787,-8.7803,-8.7873,-8.7857,-8.7959,-8.7867,-8.7871,-8.7859,-8.7855,-8.7863,-8.7977,-8.798,-8.7983,-8.7985,0,-8.7246,-8.7246,-8.7317,-8.7391,-8.7449,-8.7505,-8.7557,-8.7599,-8.7596,-8.7654,-8.7738,-8.7787,-8.7882,-8.796,-8.8027,-8.805,-8.8017,-8.8014,-8.8039,-8.8046,-8.8044,-8.8047,-8.7739,-8.8007,-8.8005,-8.8003,-8.8002,-8.8001,-8.7415,-8.7486,-8.7536,-8.7616,-8.7655,-8.7705,-8.7772,-8.779,-8.7861,-8.794,-8.7929,-8.8023,-8.8067,-8.8155,-8.8184,-8.8256,-8.822,-8.8256,-8.8265,-8.8274,-8.8284,-8.8033,-8.8268,-8.8267,-8.8267,-8.8266,-8.8266,0,-8.7649,-8.7678,-8.7753,-8.7829,-8.7892,-8.7858,-8.7914,-8.7968,-8.8052,-8.8098,-8.816,-8.8257,-8.8332,-8.8354,-8.8427,-8.848,-8.8466,-8.8499,-8.8495,-8.8501,-8.8312,-8.8284,-8.8509,-8.8509,-8.8509,-8.8509,-8.8509,-8.8508,-8.7778,-8.7897,-8.7903,-8.804,-8.8068,-8.8162,-8.8197,-8.8242,-8.8279,-8.8389,-8.8453,-8.8467,-8.8503,-8.8578,-8.8645,-8.8649,-8.8678,-8.8717,-8.8715,-8.8538,-8.8514,-8.8491,-8.8464,-8.8723,-8.8723,-8.8898,-8.8899,-8.8901]}]]